Theta_e
336 337 338 338 338 338 337 337 336 333 330 327 327 327 328 327 328 330 332 333 332 332 331 332 333 334 335 335 335 334 333 332 332 331 331 330 328 324 322 323 324 325 326 328 329 328 327 326 326 325 324 324 325 325 325 324 323 323 322 323 324 323 322 322 322 321 321 323 323 323 323 324 324 323 324 324 324 324 323 324 324 322 321 321 321
336 337 338 338 338 338 338 338 337 336 335 333 331 329 328 327 328 330 332 332 333 333 334 334 334 335 335 334 334 333 333 332 331 331 331 330 329 324 323 324 325 326 326 327 329 328 327 326 326 326 325 326 326 325 325 324 324 324 323 323 324 324 323 323 323 321 321 323 322 321 322 323 324 324 324 324 323 323 323 323 323 323 323 322 322
337 337 337 338 338 338 338 338 338 337 336 335 335 333 331 329 327 328 330 331 331 333 334 334 335 335 335 334 334 333 332 332 331 331 330 331 329 325 324 324 325 326 326 326 328 328 327 327 326 326 326 326 325 325 324 324 324 324 324 324 324 324 324 324 323 322 322 323 322 321 322 323 324 324 324 323 323 323 323 323 322 322 323 323 323
337 337 337 338 338 337 338 338 338 338 337 337 336 335 335 333 330 328 329 330 331 331 332 334 334 334 334 334 334 333 332 332 331 331 331 331 330 328 326 325 326 326 326 325 326 327 327 327 326 327 327 326 326 325 325 324 324 324 324 324 324 323 323 323 324 324 323 323 323 322 323 323 324 324 324 323 323 324 324 324 323 323 323 323 323
336 337 337 338 337 337 337 337 337 337 337 337 337 336 336 335 334 332 331 330 330 330 331 332 333 333 333 333 333 333 333 332 331 331 330 330 329 328 327 326 326 326 325 324 324 326 327 327 327 327 327 326 326 326 325 325 324 324 324 324 323 323 323 323 323 323 323 324 324 323 323 323 324 324 324 324 324 324 324 324 324 323 323 323 322
337 337 337 337 336 336 335 336 336 336 337 337 336 336 336 335 335 334 333 332 332 331 331 331 331 332 332 331 331 332 332 332 332 331 330 330 328 327 326 326 326 326 324 323 323 324 324 327 328 328 328 327 326 326 326 325 325 324 323 323 323 323 323 323 323 322 322 323 323 322 323 323 323 324 324 323 324 324 324 324 324 324 323 322 322
337 337 337 337 336 336 335 335 335 335 335 335 335 335 335 336 335 335 334 334 333 333 333 333 333 332 331 331 332 332 332 332 332 332 330 330 329 327 326 326 325 325 324 321 322 321 321 326 328 328 328 327 325 326 326 326 325 324 323 323 323 324 324 324 324 322 322 323 322 321 322 323 323 323 323 323 324 324 324 324 324 323 322 322 322
337 337 338 337 337 337 336 336 335 335 334 334 334 334 335 335 335 335 335 334 334 334 334 334 333 333 332 331 332 333 332 332 332 331 330 330 330 328 328 327 326 326 324 321 320 320 323 325 327 328 328 327 325 325 327 326 325 324 323 324 323 324 324 324 324 323 323 323 321 321 322 323 323 323 323 323 324 324 324 324 323 322 321 321 320
337 337 337 337 336 336 336 336 336 335 335 334 334 334 334 334 334 334 334 334 333 334 334 334 333 333 333 332 332 333 333 332 331 331 330 330 329 328 328 328 327 327 325 322 318 318 324 326 327 329 328 328 325 323 325 326 325 324 324 323 323 323 323 324 324 323 323 321 320 322 322 322 323 322 323 324 324 324 324 323 322 322 321 320 318
337 337 337 336 336 336 337 337 336 336 336 336 335 334 334 334 334 334 334 334 334 334 334 334 334 334 333 333 332 332 332 332 331 331 330 330 330 329 328 327 327 327 325 324 322 318 322 325 327 330 329 328 325 324 326 326 324 325 325 323 323 324 323 324 324 324 323 321 320 322 322 322 323 323 323 324 324 324 323 323 322 322 321 320 318
336 337 337 336 336 337 337 337 337 337 337 337 336 336 335 334 334 335 335 335 335 334 335 334 334 334 334 333 333 332 332 332 331 331 331 331 331 330 329 328 327 327 323 323 323 321 321 323 327 329 329 327 325 327 329 328 325 323 325 324 322 324 325 324 324 323 322 321 321 322 322 323 323 323 323 323 324 324 323 322 322 321 321 319 318
335 335 336 336 336 336 337 337 337 337 337 337 337 336 336 335 335 335 335 335 334 334 334 334 334 334 334 333 333 333 332 332 332 331 331 331 331 330 330 328 328 327 324 320 320 321 320 322 326 328 328 327 326 327 329 329 327 323 324 325 322 324 325 323 324 323 321 321 321 322 323 323 323 323 323 323 324 324 322 321 321 320 319 319 316
335 336 336 336 336 336 336 336 337 337 336 336 336 336 335 335 336 335 335 334 334 333 333 333 333 333 332 332 332 332 332 332 332 331 331 331 331 330 330 329 329 328 325 322 321 321 319 320 325 327 328 328 327 328 329 329 328 326 325 325 322 324 325 324 324 323 322 322 321 322 323 323 323 323 323 323 323 324 323 321 321 320 319 317 313
335 335 335 335 336 336 337 337 337 336 336 335 335 335 334 334 335 335 334 335 334 334 333 333 333 332 331 331 331 331 331 331 331 331 331 331 331 330 330 329 329 329 327 325 324 323 320 319 325 328 328 328 328 328 328 329 329 327 327 325 321 322 326 325 324 324 322 323 321 322 323 323 323 323 323 323 323 323 321 319 317 316 315 313 308
335 334 334 334 334 335 336 336 337 337 336 335 335 335 334 334 334 334 334 334 333 333 334 334 333 332 330 330 331 332 331 330 329 330 330 330 330 330 330 330 329 330 328 327 325 324 323 322 324 328 328 328 328 328 327 328 329 328 328 327 321 320 326 327 324 325 324 323 322 321 323 323 323 323 323 323 323 321 319 314 308 307 307 306 302
334 334 334 334 334 335 335 335 335 336 336 335 335 335 334 334 334 333 333 333 333 333 334 334 334 334 331 330 330 331 333 331 328 329 330 330 330 329 329 329 329 329 329 328 327 326 326 325 325 327 328 328 328 328 328 327 328 328 328 329 324 319 324 328 326 325 326 324 322 321 322 323 322 323 323 321 321 320 317 310 302 301 301 300 300
333 333 333 333 334 334 334 334 334 334 334 333 334 333 333 333 333 332 332 332 333 333 333 333 334 334 333 332 331 332 334 331 329 330 330 329 330 329 329 329 329 329 329 329 328 328 328 328 326 327 328 329 329 328 328 327 327 328 328 329 328 321 321 328 327 325 326 324 322 322 322 322 322 322 322 321 320 319 317 309 301 299 298 300 304
332 332 332 333 333 333 333 334 334 334 333 333 333 333 333 333 332 332 331 332 332 332 331 332 332 332 332 332 332 333 333 329 329 331 330 329 330 330 330 329 329 329 329 329 329 328 329 329 328 328 329 330 330 329 328 328 327 328 329 329 329 324 319 326 329 326 327 326 322 322 322 322 322 322 322 321 319 319 316 308 300 298 297 302 309
331 331 332 332 332 332 333 333 333 334 334 333 333 333 333 333 332 332 331 331 331 331 331 331 331 330 331 331 331 332 332 329 329 331 331 330 329 329 330 330 330 329 329 330 329 329 329 330 330 330 331 331 330 330 329 329 328 327 328 328 329 327 320 322 328 328 327 327 323 323 323 322 322 322 323 321 319 319 316 307 299 297 298 305 312
329 329 330 330 331 331 331 332 332 333 333 333 333 333 333 333 332 332 332 332 332 331 331 331 330 330 330 331 331 331 331 330 329 329 330 331 330 330 330 330 330 330 330 330 330 330 330 330 331 331 332 331 330 330 330 329 328 327 328 327 328 330 324 319 325 328 328 327 326 324 323 322 322 323 323 321 320 318 315 307 299 296 301 309 313
327 328 328 329 329 330 330 330 331 332 332 333 332 332 332 332 332 332 333 332 332 332 332 331 331 330 330 329 330 330 330 330 329 328 328 329 331 330 330 330 330 330 330 330 330 330 331 331 331 332 332 332 330 330 331 330 328 327 327 327 327 329 328 321 322 327 328 327 327 326 323 322 323 323 323 321 319 317 313 306 299 297 304 310 312
326 326 326 327 328 328 329 329 329 330 330 330 330 331 331 331 331 332 332 332 332 332 332 331 330 330 330 329 329 329 329 329 329 329 328 328 329 329 329 330 330 330 330 330 330 330 331 331 332 332 332 332 330 330 330 330 329 327 328 328 327 327 329 326 322 324 327 328 327 327 325 323 322 322 322 321 319 316 311 304 298 298 304 310 312
325 325 325 325 326 327 327 328 328 328 328 328 328 328 329 329 328 329 330 330 331 332 331 331 330 330 329 329 329 329 329 329 329 329 328 328 329 328 328 329 329 329 329 329 329 329 331 331 332 332 332 332 330 329 329 330 330 329 329 330 329 327 328 328 324 323 325 328 327 327 326 324 323 323 322 321 319 317 311 302 298 300 306 311 312
323 323 323 323 324 325 326 326 326 326 326 326 326 326 326 326 326 326 327 328 330 331 331 330 329 329 329 329 329 329 329 329 329 329 329 329 329 328 328 328 329 329 329 329 329 328 329 330 331 331 331 331 330 329 329 330 331 329 328 330 330 328 327 328 327 324 325 328 328 327 326 326 324 323 322 321 320 318 313 302 297 303 310 312 312
321 320 320 321 322 322 322 322 322 322 323 324 324 324 324 324 324 324 324 325 327 328 329 329 328 327 328 328 328 329 329 329 329 328 329 328 328 329 328 327 328 328 329 329 328 328 328 329 330 330 329 330 330 329 329 330 330 328 328 328 330 329 327 327 328 327 326 327 328 327 326 327 326 324 323 321 320 319 316 305 296 302 311 313 313
318 317 317 317 318 318 318 319 319 319 320 321 322 322 322 323 324 324 324 324 324 325 326 327 327 328 328 328 328 329 329 329 329 328 328 328 328 328 328 327 327 327 329 330 329 329 329 329 330 329 329 329 329 329 328 329 329 328 328 328 329 329 328 327 328 328 328 328 328 327 326 327 325 324 324 322 320 318 317 308 296 299 307 312 314
315 315 315 314 314 315 316 316 317 318 318 319 319 319 320 321 322 323 324 325 325 325 326 326 326 327 327 327 328 329 329 329 329 329 329 328 328 328 328 328 328 328 328 329 330 330 330 330 330 330 330 329 328 328 328 328 328 328 328 328 329 330 329 328 328 328 328 328 328 327 327 326 325 324 324 323 320 318 317 310 299 296 302 308 312
312 313 313 313 312 312 313 313 315 315 316 317 317 317 317 318 320 321 323 324 325 325 326 326 326 327 326 327 327 328 328 328 329 329 329 329 328 328 327 327 328 329 328 328 329 330 330 330 330 330 330 329 328 328 328 328 328 328 328 329 330 330 330 329 328 328 328 328 328 328 327 326 325 324 323 323 322 319 317 310 300 296 299 304 309
310 311 312 311 310 310 310 311 312 313 314 315 314 315 316 317 318 320 320 321 322 324 325 326 327 327 327 328 328 327 328 328 328 328 328 329 329 328 327 327 327 329 329 329 330 329 329 329 329 329 330 330 329 329 328 328 328 328 328 329 330 330 330 329 327 328 328 328 328 327 327 326 324 323 322 323 322 321 318 310 300 296 298 302 306
309 309 310 309 308 307 308 309 309 310 311 311 312 313 315 316 317 318 319 319 320 321 323 325 325 326 327 327 328 328 328 328 328 328 328 328 328 328 328 327 327 327 329 330 330 328 328 329 329 329 329 329 330 330 329 328 327 328 328 328 329 329 329 327 325 326 327 328 328 327 327 326 323 321 321 323 323 322 320 309 298 296 298 300 302
307 307 307 307 305 305 306 307 307 308 308 309 310 311 313 314 315 316 317 318 319 320 321 323 324 325 326 326 327 328 328 328 328 328 328 328 328 328 328 327 327 327 327 327 328 328 327 328 328 329 329 329 330 329 329 329 327 328 328 327 328 328 327 326 324 325 326 327 327 327 327 325 323 320 319 323 323 322 321 310 297 297 298 298 300
305 305 305 304 303 302 303 303 304 305 305 306 307 308 309 311 312 312 314 315 316 318 320 321 322 323 324 325 326 327 328 328 328 328 328 328 328 328 328 327 327 327 326 326 327 327 327 327 328 329 329 329 330 330 330 329 328 328 327 327 327 328 328 326 325 325 325 326 327 327 326 325 324 319 317 322 323 321 321 312 298 297 298 297 300
303 303 303 302 302 301 300 300 300 300 302 302 303 305 307 308 309 310 311 311 312 314 316 318 320 321 321 323 325 326 327 327 328 328 328 328 327 327 327 327 326 326 326 326 326 326 326 326 328 328 328 329 330 330 329 328 328 328 327 327 327 328 328 327 326 326 325 326 327 327 326 325 324 319 315 320 322 321 321 311 298 297 298 297 300
301 301 301 301 301 300 298 298 298 298 299 299 299 301 302 304 305 306 306 306 307 310 311 314 316 317 318 320 323 325 325 326 327 327 327 327 327 327 327 327 327 326 326 326 326 325 325 326 327 328 329 329 329 329 329 328 328 328 327 327 327 327 328 327 325 325 325 326 326 326 326 325 324 319 315 320 321 320 320 310 297 297 298 297 300
300 300 300 300 299 299 298 298 298 298 298 298 298 298 298 299 300 302 304 304 305 307 309 310 312 314 315 317 320 323 325 326 326 326 326 327 327 327 327 327 327 327 327 326 326 325 324 325 325 327 328 329 329 329 329 329 328 327 327 327 327 327 328 326 324 323 324 325 326 326 326 326 325 319 316 320 321 320 319 311 298 297 298 298 301
299 299 299 298 298 298 297 297 297 297 297 297 297 297 297 297 298 301 303 304 306 307 308 310 311 312 313 316 319 322 324 325 326 326 326 326 326 326 326 327 328 328 327 327 326 325 325 325 325 326 327 328 329 329 329 328 327 327 326 326 327 327 327 326 323 321 322 324 326 326 326 326 324 317 314 319 321 320 319 311 300 297 298 298 301
298 298 298 298 297 297 297 297 297 296 297 297 297 297 297 298 300 302 303 304 305 307 308 309 310 311 313 314 317 320 323 325 326 326 326 326 326 326 326 326 326 327 327 327 326 326 325 325 326 326 326 327 328 328 328 327 326 325 325 325 326 325 325 325 323 321 321 324 326 326 326 326 321 312 311 318 321 320 319 313 302 298 298 298 301
298 297 297 297 297 297 296 296 296 296 296 296 297 297 297 298 300 302 303 303 304 305 306 307 308 309 309 311 313 315 317 320 322 324 326 326 326 326 325 326 326 326 326 325 325 325 325 325 325 326 326 326 327 327 327 326 325 324 324 324 324 324 323 323 323 323 323 325 326 326 326 325 317 309 310 316 320 320 319 314 304 297 298 298 300
297 297 297 297 297 296 296 296 296 296 296 296 296 297 297 297 298 300 300 301 302 303 304 305 306 305 305 307 310 310 311 313 315 317 319 322 324 326 326 326 326 325 325 325 325 326 326 326 326 326 326 326 327 327 327 326 324 324 324 322 321 322 322 322 322 323 323 325 325 325 326 323 314 309 311 314 318 319 319 316 306 299 298 298 299
297 297 297 297 297 296 296 296 296 296 296 296 296 296 297 297 297 297 298 299 300 300 302 303 303 303 303 304 306 306 307 310 311 312 313 315 318 322 325 326 326 325 325 325 326 326 326 326 326 326 326 325 326 326 326 324 323 322 323 322 321 321 321 321 322 322 322 324 324 323 323 320 314 313 315 316 319 320 319 317 310 301 298 299 298
297 296 296 296 296 296 296 296 296 296 295 295 295 296 296 296 296 296 297 298 298 299 300 300 301 301 301 301 303 303 305 309 311 312 313 313 313 316 319 323 325 325 325 325 326 326 326 326 325 325 325 325 325 325 323 322 322 322 322 321 321 320 320 320 320 321 321 322 323 322 321 320 316 316 318 319 319 319 319 318 312 302 299 299 298
297 296 296 295 295 295 296 296 296 296 295 295 295 295 296 296 296 296 296 297 297 297 298 298 299 299 299 300 301 302 304 308 309 311 312 313 313 314 316 319 321 323 325 325 325 325 326 326 325 325 324 324 325 324 322 321 322 322 321 321 320 319 319 319 318 319 320 320 321 320 320 320 318 317 318 318 318 318 318 316 309 301 298 299 298
296 296 295 295 295 295 295 295 295 295 295 295 296 295 295 296 296 296 296 296 297 296 297 297 297 298 298 298 299 300 302 304 305 307 309 311 313 314 316 318 320 321 323 324 325 325 325 325 325 325 324 323 324 324 323 321 321 321 320 320 320 318 317 318 317 317 318 319 319 318 318 318 317 317 318 318 317 316 314 309 303 299 299 299 299
294 294 294 293 293 294 294 295 295 295 295 295 296 295 295 295 296 296 295 296 296 296 296 296 296 296 297 297 298 298 299 300 301 303 306 308 311 312 314 318 321 322 322 323 324 325 325 325 325 324 324 323 323 324 324 321 320 320 320 319 319 318 317 317 317 316 317 318 318 317 316 316 316 316 316 316 315 311 306 302 299 299 299 299 299
293 292 292 292 292 293 293 294 294 294 295 295 296 296 295 295 295 295 295 295 295 295 296 295 295 295 296 296 297 297 298 299 299 300 302 305 308 310 312 316 319 322 323 323 323 324 324 325 325 324 324 324 323 323 324 323 321 319 318 318 318 318 317 317 317 316 317 318 317 315 314 314 315 316 315 315 313 307 301 299 300 300 300 299 299
292 292 292 292 292 292 293 293 294 294 294 295 296 296 295 295 295 295 295 294 294 294 295 295 295 295 295 295 296 296 296 297 297 298 299 302 304 307 309 312 316 319 322 323 324 324 324 324 324 324 325 324 324 324 324 324 322 319 318 318 318 318 318 318 317 316 315 316 315 313 312 312 313 314 314 313 312 307 301 299 299 299 300 300 300
293 292 292 292 292 292 293 293 294 294 295 295 296 296 296 295 295 295 294 294 294 294 294 295 295 295 294 295 295 295 294 294 295 296 297 299 302 304 306 308 312 316 319 321 323 324 324 324 324 324 325 325 325 325 325 324 323 322 320 319 319 318 318 317 316 314 315 316 314 313 311 311 311 312 312 311 310 307 304 301 300 300 300 301 301
293 292 292 292 292 292 293 293 294 294 295 296 296 296 296 295 295 294 294 294 293 293 293 294 294 294 294 294 294 294 293 293 294 295 296 298 300 302 302 304 308 312 316 319 321 322 323 324 324 325 325 325 325 325 324 324 324 322 319 317 317 317 316 316 315 314 314 315 314 314 314 311 310 310 310 310 309 308 306 305 303 302 302 302 304
293 292 292 292 292 292 293 293 293 294 295 295 296 296 296 295 295 294 294 293 293 293 293 293 293 293 293 294 294 293 292 292 294 295 296 297 298 299 299 300 304 308 313 316 318 320 322 323 323 324 324 325 325 324 324 324 323 322 318 315 315 316 316 316 315 313 313 314 314 315 315 311 309 309 309 308 308 307 307 306 305 304 303 304 306
293 292 292 292 292 292 293 293 293 294 295 295 296 296 296 295 295 294 294 293 292 292 292 293 293 293 293 293 293 293 292 292 293 295 295 296 297 297 297 298 300 303 308 313 315 318 321 322 322 323 324 324 324 324 324 324 323 322 319 316 315 315 315 316 315 313 312 313 313 314 313 310 309 309 308 306 306 305 306 306 306 305 305 305 307
293 292 292 292 292 292 293 293 293 294 295 295 296 296 296 296 295 294 294 293 292 292 292 292 292 292 292 292 293 292 292 292 293 294 295 295 295 295 295 296 297 300 304 309 312 316 319 322 322 322 323 324 324 324 324 324 323 322 321 319 316 314 315 315 315 313 312 312 313 314 312 309 308 308 307 306 305 304 304 304 305 305 305 306 307
Wind_Speed
10 9 9 9 9 8 7 6 7 7 8 7 7 9 9 9 8 7 6 5 6 7 9 10 10 11 12 14 16 15 12 13 15 16 14 12 9 9 10 9 8 9 10 11 11 11 11 10 10 10 9 9 10 9 9 8 8 8 8 9 9 8 8 9 9 10 9 9 9 9 10 10 11 11 11 11 12 13 13 12 13 15 15 15 14
12 10 10 10 10 10 10 9 8 8 9 9 8 8 9 10 10 10 9 9 9 10 11 12 12 12 12 14 16 15 14 14 16 18 16 14 12 10 10 10 9 9 9 11 12 12 12 12 11 11 10 10 10 10 10 9 8 8 9 9 9 9 9 9 9 10 10 9 10 10 9 10 10 11 11 11 12 13 13 13 13 14 15 16 16
13 12 11 11 10 11 11 11 10 9 9 10 10 10 10 10 11 12 12 13 13 12 13 13 14 13 12 14 16 16 15 15 16 19 19 16 14 11 11 12 10 10 10 11 13 13 13 13 12 12 11 10 10 10 10 9 9 9 9 10 9 9 9 9 8 9 10 9 10 10 9 9 10 11 11 11 12 12 13 14 14 15 15 15 16
12 12 12 11 11 11 12 12 12 11 10 10 11 12 13 12 12 13 14 15 15 15 14 15 16 16 15 16 17 17 16 15 16 20 21 19 17 14 12 13 12 11 11 11 13 14 14 14 13 13 12 11 10 10 11 10 10 9 10 10 9 9 9 9 9 9 9 9 10 10 9 8 9 10 11 11 11 11 12 13 14 15 15 15 15
10 10 10 11 11 11 11 12 12 12 12 11 11 12 13 14 14 15 16 16 18 18 17 18 18 19 19 19 19 18 18 16 16 19 22 21 19 16 14 14 13 12 12 12 13 14 15 14 14 13 13 12 12 11 11 11 11 11 10 11 11 10 10 10 9 9 8 8 8 9 9 8 8 9 10 10 11 10 11 12 12 13 14 15 15
9 10 10 11 11 10 11 11 11 12 12 13 13 13 13 14 15 15 16 17 19 20 20 21 21 22 22 21 20 20 19 18 16 18 22 22 19 18 16 15 14 13 13 14 14 15 16 16 14 13 13 14 14 13 12 12 13 12 11 12 12 12 11 10 9 9 8 8 8 8 9 8 8 9 9 10 10 10 10 10 11 13 14 15 16
10 10 10 10 9 9 9 9 10 10 11 12 13 14 14 14 15 15 16 17 19 20 21 23 23 23 23 21 19 18 17 18 17 17 21 22 21 20 17 17 17 15 15 15 15 16 17 17 17 15 14 15 15 14 13 13 14 13 13 13 13 12 11 10 10 9 9 9 8 8 9 9 9 9 9 10 10 10 10 11 12 13 14 14 15
11 10 9 8 9 9 8 8 9 9 10 11 12 14 15 15 16 16 17 17 18 19 20 21 22 23 23 21 18 17 16 17 17 17 19 21 22 21 19 18 19 19 17 16 16 16 17 18 18 17 16 16 15 15 15 14 14 13 14 14 14 13 12 12 11 10 10 9 9 9 10 10 10 9 10 10 10 10 11 11 12 13 13 13 13
11 9 8 8 9 9 9 9 9 10 10 10 12 13 14 15 15 15 17 17 17 18 18 18 19 21 21 21 20 18 16 14 16 17 19 22 24 23 22 19 19 21 20 19 18 17 18 18 18 18 18 17 16 15 16 15 14 13 14 15 15 14 13 13 12 11 11 10 10 11 10 11 10 10 10 10 10 10 11 11 12 12 12 12 12
10 9 9 10 11 11 10 10 11 11 11 12 13 13 13 14 15 15 15 16 18 17 17 17 18 19 19 20 20 18 15 13 16 18 20 22 25 25 23 21 19 20 21 22 21 19 20 20 20 20 20 19 16 15 16 16 15 15 15 16 16 15 13 13 13 12 12 11 11 12 12 12 11 10 11 11 11 10 11 11 11 11 11 11 10
9 9 10 12 12 11 11 12 13 12 12 14 14 14 14 14 15 16 16 16 17 17 18 18 18 19 20 20 20 20 19 17 16 19 20 21 23 23 22 21 20 20 21 24 23 22 22 22 23 22 22 21 17 16 17 16 16 16 17 17 17 16 14 14 14 13 14 13 13 13 13 14 12 11 12 11 11 11 11 11 10 10 9 9 8
7 9 10 11 11 11 12 14 15 14 14 15 15 16 16 16 17 16 17 17 17 18 17 18 19 20 21 21 21 20 21 21 19 18 20 21 21 22 21 21 21 21 24 24 23 24 25 24 25 25 23 22 18 17 18 17 16 17 18 18 17 18 16 15 15 14 15 14 14 15 14 13 13 13 13 12 12 11 10 10 9 9 8 7 7
5 7 8 9 10 12 14 15 16 16 16 17 17 17 17 17 17 17 18 18 19 18 16 16 16 16 17 18 19 19 20 21 21 20 21 22 22 23 23 23 24 24 26 27 24 24 26 26 27 26 24 22 20 19 20 19 18 17 19 20 19 19 17 16 15 15 16 15 15 17 15 14 14 14 14 13 12 11 10 9 9 9 8 8 7
3 4 6 8 10 12 14 15 16 16 16 17 17 17 17 17 17 19 19 18 19 19 17 13 10 11 11 10 13 15 17 19 22 23 23 23 24 26 27 26 27 28 28 29 26 25 27 28 29 28 25 23 21 21 22 22 21 20 21 22 21 20 18 17 16 16 16 16 17 19 16 15 15 14 14 13 12 11 10 9 9 8 9 9 8
5 4 5 6 8 10 12 13 14 15 15 15 15 16 16 16 17 18 18 18 19 20 19 15 13 12 8 4 5 6 8 12 19 24 25 25 26 28 28 28 28 28 29 29 28 27 27 29 30 30 28 25 23 23 24 25 23 23 23 23 22 21 20 19 18 18 17 17 19 20 18 16 16 15 14 13 12 11 9 8 8 8 9 9 9
8 7 7 7 7 9 10 11 12 12 13 15 16 17 17 17 17 16 17 18 18 19 19 18 18 15 6 2 2 2 3 6 12 19 23 25 27 29 30 30 30 29 29 28 28 30 30 30 31 31 30 26 24 24 25 25 25 24 23 24 24 22 22 22 20 20 19 18 20 21 19 17 17 16 15 14 13 11 9 8 8 8 9 9 9
12 11 10 10 10 10 11 11 11 12 13 15 17 18 18 18 18 17 17 18 18 19 19 19 19 18 13 7 3 2 3 2 5 10 16 23 27 30 32 33 33 32 31 29 29 32 33 32 32 33 31 28 25 25 26 26 26 25 24 25 26 24 23 23 21 21 21 20 20 21 20 19 18 17 15 15 13 10 9 9 9 9 9 9 9
14 13 12 12 11 12 12 12 13 13 14 16 16 17 18 18 18 18 18 19 20 20 20 20 20 20 21 19 15 13 9 3 1 4 8 18 23 27 30 32 33 33 33 31 30 33 34 33 34 34 31 28 26 25 27 28 28 27 26 27 27 26 25 24 22 23 24 22 21 21 20 20 20 18 16 16 13 10 10 10 10 10 10 10 10
14 13 13 13 12 12 13 13 13 14 14 14 15 16 17 18 18 18 19 19 20 19 21 22 20 19 22 24 25 26 24 14 7 5 4 8 16 22 27 29 31 32 33 33 32 32 33 34 35 35 32 29 26 26 27 29 29 29 29 28 27 26 26 25 24 23 23 23 22 21 21 20 20 19 17 16 13 11 11 11 11 11 11 11 11
14 14 13 13 13 12 12 12 12 13 13 14 15 16 17 18 18 19 20 19 20 21 22 21 19 19 20 22 24 27 29 25 20 14 6 4 7 13 20 27 30 30 30 31 32 33 33 34 35 35 33 30 28 27 28 29 29 30 30 30 28 27 26 26 26 23 21 24 24 23 22 21 21 21 19 17 15 12 11 11 11 11 12 12 12
14 14 14 13 13 13 13 13 14 13 13 14 16 17 18 19 19 19 20 20 20 21 23 22 21 22 22 21 22 22 24 26 26 21 12 7 6 4 10 18 22 28 31 29 30 32 33 34 35 34 34 32 29 29 29 29 29 29 30 31 29 28 28 27 27 25 23 23 24 24 23 21 22 21 20 19 16 13 11 12 12 13 13 13 13
15 15 15 14 13 14 14 14 14 14 14 15 16 17 18 19 20 20 21 22 22 22 23 24 24 26 25 23 22 20 17 16 18 19 14 11 9 6 7 11 12 21 30 32 32 33 34 35 34 34 34 32 30 30 31 30 30 30 30 29 29 29 29 29 28 27 25 23 23 25 24 22 21 21 21 19 16 13 12 12 13 14 14 14 14
16 16 16 15 14 14 14 14 14 15 15 16 16 17 18 19 20 20 21 22 23 24 25 25 25 26 27 26 26 23 19 15 15 17 13 9 8 6 9 13 13 17 25 33 36 34 34 34 34 34 34 33 32 31 33 33 31 30 29 29 28 29 30 30 30 29 27 24 22 24 27 24 21 21 21 19 17 15 12 12 14 15 15 15 15
15 17 18 17 16 15 16 16 16 16 17 18 18 18 18 19 20 20 21 22 24 25 26 25 24 25 26 27 27 27 26 24 23 22 18 16 13 6 8 13 13 14 20 25 30 34 34 33 34 35 34 34 34 34 34 34 32 30 30 29 28 28 30 31 31 30 28 25 21 22 27 26 22 22 22 20 18 16 14 13 15 16 16 16 15
14 17 18 17 17 17 17 18 18 18 18 19 19 20 20 20 20 21 21 22 23 25 26 26 26 27 28 28 29 30 30 29 28 27 24 23 17 9 10 14 10 10 15 18 22 27 31 33 34 34 34 34 35 34 35 35 33 31 30 30 28 28 29 31 33 32 30 27 23 23 27 27 23 23 23 20 19 18 15 15 16 18 18 17 16
14 15 15 15 16 17 17 18 18 19 19 19 19 19 19 19 19 21 22 22 23 24 26 27 29 29 28 29 30 30 30 29 29 29 27 23 18 13 11 11 11 9 11 16 19 18 22 29 33 33 33 34 34 34 35 35 34 32 32 31 29 28 28 30 33 32 31 29 26 25 27 28 26 24 24 22 20 19 17 16 18 20 20 19 19
12 12 13 13 15 18 18 18 18 19 19 19 19 19 18 18 17 18 20 21 23 24 25 26 27 28 28 29 31 31 30 29 29 29 27 24 23 23 16 8 7 7 7 11 15 17 20 24 29 33 34 34 35 35 34 34 33 31 31 31 30 29 27 29 32 33 32 30 28 26 27 29 27 26 26 23 21 21 19 18 19 22 22 22 21
12 12 12 12 15 19 18 18 18 18 18 19 20 20 21 20 20 20 19 20 21 23 25 27 27 28 28 29 31 32 31 30 31 30 29 27 27 28 24 14 8 5 5 6 8 13 20 20 22 30 34 34 35 35 33 33 32 31 30 31 31 30 28 29 30 32 32 31 30 28 28 29 29 28 28 25 23 23 20 19 20 23 23 22 22
13 13 12 12 17 20 19 19 19 19 19 19 20 21 22 22 22 22 22 21 22 22 24 25 27 28 28 29 30 31 30 30 30 30 29 29 29 29 28 25 17 7 4 6 5 7 16 21 21 24 30 34 35 34 33 33 32 31 30 31 32 31 30 30 30 31 32 32 31 30 29 31 30 30 30 27 25 24 21 20 22 24 24 23 23
15 14 13 14 19 22 22 23 23 22 22 23 23 23 23 23 23 23 23 23 24 23 22 23 24 26 28 29 29 29 29 29 29 29 28 28 29 30 30 30 26 16 8 5 6 9 15 21 23 22 25 30 33 33 33 33 32 31 31 32 33 32 30 30 31 31 31 32 32 31 31 32 32 31 31 29 27 24 22 21 23 25 25 24 24
18 17 16 17 22 25 26 26 26 26 26 26 26 26 25 24 24 23 23 24 25 25 24 23 23 25 27 28 28 27 28 29 28 27 28 29 29 29 29 30 30 26 18 8 5 10 16 20 24 25 24 25 30 32 32 32 32 31 31 33 34 32 31 30 31 31 31 32 33 33 33 34 33 31 31 30 29 26 22 22 25 26 26 25 25
20 19 18 20 24 27 28 29 29 29 29 28 28 28 26 25 24 24 23 23 24 25 25 24 24 24 25 26 27 27 27 28 27 26 26 28 28 27 28 29 28 27 25 15 6 8 15 20 23 26 24 23 26 31 33 33 32 32 33 35 35 32 32 31 31 31 32 33 34 34 35 35 34 32 32 31 30 27 24 24 26 28 27 26 26
22 20 20 20 23 26 29 31 32 32 32 31 31 31 29 26 25 25 25 25 25 26 26 25 25 25 25 25 26 26 25 26 26 25 25 25 24 25 27 27 26 26 25 20 11 8 12 18 20 21 23 24 26 30 33 33 33 34 35 35 34 33 33 33 32 32 32 33 35 36 36 36 35 33 32 32 31 29 25 25 27 28 27 27 27
24 22 21 20 21 24 28 31 32 33 33 34 33 33 32 30 28 27 27 28 28 27 27 28 27 28 27 25 25 25 25 24 24 23 23 23 23 25 27 27 25 25 26 23 16 10 11 16 19 19 21 24 26 29 33 34 35 37 37 37 36 36 36 35 34 33 33 34 35 36 37 37 35 33 33 33 32 30 26 26 28 29 28 28 29
25 23 22 21 22 25 28 31 32 33 34 35 34 34 33 31 30 29 28 28 29 29 29 30 29 30 30 27 25 25 25 23 22 22 23 23 22 23 25 27 27 26 26 26 21 15 13 16 19 20 21 23 26 29 32 35 36 36 38 39 38 38 38 37 35 34 34 35 36 36 37 37 35 33 34 34 33 31 28 26 28 30 29 29 30
27 26 24 23 24 26 28 30 32 33 34 35 35 35 33 31 31 31 28 27 28 29 29 30 30 30 29 27 26 26 26 24 22 22 22 23 23 22 22 22 24 24 24 26 26 22 16 15 19 22 23 24 26 28 30 32 33 34 37 37 37 38 39 39 37 35 34 35 36 37 37 37 35 34 35 35 34 32 29 27 28 30 30 31 31
27 27 26 24 25 26 27 28 30 32 33 34 35 36 35 32 30 29 28 27 28 29 29 30 30 28 27 26 25 27 27 25 23 22 22 22 23 22 22 21 21 22 21 23 25 24 19 17 19 21 22 24 25 27 30 31 29 30 32 33 35 37 36 36 36 35 35 35 36 37 37 36 34 34 35 36 34 33 30 27 28 31 31 31 32
25 26 25 24 24 25 26 27 29 32 33 34 36 37 36 33 30 29 28 27 28 28 28 28 27 25 25 26 25 25 26 25 23 22 22 23 23 22 22 22 22 22 21 21 22 22 22 23 22 21 21 23 24 25 29 32 30 30 29 27 29 32 31 32 34 35 36 37 37 38 37 36 34 35 36 36 35 33 31 28 28 30 32 32 31
25 25 25 24 24 24 25 27 29 32 34 35 36 37 37 35 32 30 30 28 28 28 27 27 27 27 27 27 27 27 28 27 25 23 21 20 21 22 23 24 23 22 22 22 23 23 24 24 22 22 23 23 24 25 28 31 30 31 31 26 23 25 28 32 34 33 35 38 38 38 37 35 34 35 36 36 35 34 32 29 28 30 32 32 31
25 25 24 24 24 25 26 27 29 31 35 36 37 37 37 35 33 31 30 29 29 29 29 30 30 29 28 27 27 29 30 28 25 23 24 22 19 19 22 23 24 22 22 22 23 23 24 23 21 22 22 22 23 24 24 25 23 25 32 31 27 28 30 32 34 34 35 37 38 39 38 35 34 36 37 36 35 35 33 30 28 30 32 33 31
24 25 24 24 25 26 27 28 28 31 34 36 37 36 35 34 33 31 30 30 29 29 30 32 33 31 30 29 28 29 31 28 25 23 23 23 22 20 19 20 21 22 22 22 21 22 22 21 19 20 19 19 21 20 19 24 26 26 29 29 26 28 30 29 30 33 35 37 38 39 39 37 36 37 38 37 37 36 34 32 30 30 33 34 33
23 24 24 25 26 26 27 28 28 30 33 35 36 35 34 33 32 31 30 29 29 30 29 30 33 33 32 31 30 31 33 30 28 27 26 24 23 20 19 18 19 20 22 22 21 21 20 18 18 19 16 16 20 22 22 28 31 26 26 29 25 22 24 22 21 27 33 35 36 37 38 39 38 38 39 39 39 38 37 35 33 33 34 35 34
21 22 24 25 26 26 26 27 27 28 31 33 34 36 36 34 32 30 29 28 29 30 30 29 32 33 32 32 32 34 36 34 32 31 30 28 26 23 21 19 19 19 21 22 22 22 20 18 19 20 18 18 22 26 26 29 29 27 30 33 27 23 24 20 15 20 30 34 34 34 35 36 37 38 39 40 41 40 39 37 35 35 35 35 35
22 23 24 24 25 25 25 26 26 27 30 32 33 35 36 36 34 31 29 28 27 28 30 31 33 33 32 31 32 34 36 35 34 34 34 32 30 28 25 21 20 19 20 22 24 23 21 20 19 19 20 23 23 25 27 29 30 30 31 31 29 28 29 26 21 22 30 35 33 30 31 33 36 37 38 41 42 41 39 37 36 35 35 35 35
25 25 25 25 25 25 25 25 26 26 29 31 31 34 36 36 36 34 32 29 26 26 29 30 31 33 32 30 31 34 37 37 36 37 38 37 34 32 29 24 21 19 19 20 24 26 26 24 21 21 25 27 25 26 30 32 32 31 29 29 31 31 30 31 31 29 32 38 36 29 26 30 35 36 37 40 42 41 39 37 36 36 35 35 35
27 27 27 27 26 25 25 25 26 27 29 30 30 32 35 37 37 35 34 32 28 26 28 29 30 32 30 29 30 32 35 36 36 38 39 39 38 36 33 29 24 21 20 19 20 24 29 29 26 26 29 31 29 30 32 33 34 34 33 34 36 35 35 36 35 31 30 35 36 28 21 26 33 35 37 39 40 40 39 37 37 36 35 35 35
27 27 28 27 27 26 25 26 27 28 29 29 30 31 33 36 37 36 34 33 31 29 29 29 30 31 29 27 28 30 32 34 35 36 37 38 38 37 35 32 28 25 22 20 19 19 25 31 31 30 31 30 31 33 31 31 35 37 38 39 39 37 33 29 26 26 28 32 36 29 19 23 32 34 36 38 37 37 38 37 37 37 35 35 35
26 28 28 28 27 27 26 26 27 29 29 30 30 31 33 35 37 36 35 34 33 32 30 29 30 31 29 27 27 29 31 34 35 34 35 35 35 35 34 32 30 27 24 21 20 19 20 25 30 33 32 29 29 31 30 30 33 35 31 28 28 27 23 19 19 23 27 29 35 35 24 21 29 33 32 32 33 33 35 36 36 36 36 35 34
27 28 28 28 27 26 27 27 27 28 30 30 30 30 32 34 36 36 35 34 33 32 30 29 30 31 29 27 27 28 31 34 35 34 33 33 33 33 32 31 29 28 26 22 19 20 19 20 25 30 32 30 27 27 29 29 31 32 26 21 24 27 23 16 15 20 26 29 35 38 29 21 27 32 27 24 26 28 30 33 34 33 33 34 34
27 27 28 29 28 27 27 27 28 28 29 30 30 30 30 32 34 35 34 33 33 32 30 30 31 32 31 29 27 28 32 35 34 33 33 33 32 30 29 28 28 27 26 23 20 20 19 19 21 25 29 30 28 26 26 27 30 33 31 28 29 31 26 19 17 19 21 27 35 37 27 20 25 30 25 18 16 19 23 26 29 29 29 29 29
27 27 28 29 30 29 28 28 28 29 30 30 30 29 29 30 32 34 33 33 33 32 30 29 31 33 33 33 31 30 33 34 33 32 32 32 30 29 26 25 26 28 29 25 21 20 21 20 19 21 24 27 28 27 26 27 28 32 35 35 34 34 30 26 24 18 11 18 35 39 28 21 25 30 27 17 8 8 15 20 22 25 26 26 25
Wind_Direction
292 292 291 290 289 283 277 278 290 301 304 293 265 255 259 266 269 269 280 282 265 253 254 262 274 286 295 304 309 306 292 272 254 246 244 242 236 216 206 203 198 198 197 190 191 195 191 186 180 179 177 171 171 169 166 167 159 155 154 152 147 141 137 133 128 123 123 122 119 122 121 113 110 109 105 102 100 98 98 98 97 94 96 101 103
284 286 285 286 285 283 283 281 282 288 296 301 293 278 269 272 276 276 286 297 297 288 280 278 279 287 296 304 305 301 297 285 261 248 245 242 238 221 208 209 205 203 202 192 194 198 193 188 184 183 180 177 179 174 172 172 164 159 155 155 153 149 145 141 135 124 125 129 126 129 128 120 117 113 109 105 105 105 104 102 99 97 97 99 100
278 277 277 279 279 280 281 282 285 287 288 290 292 293 288 282 280 280 284 289 295 296 293 290 286 286 291 297 296 293 293 290 267 249 245 242 238 227 212 212 211 209 206 200 199 199 196 191 188 188 182 183 189 181 177 175 168 166 163 162 159 156 154 149 144 135 136 138 131 132 132 130 127 121 117 115 117 116 111 108 105 102 99 99 98
279 274 274 280 285 286 284 285 289 292 290 285 283 286 288 286 281 279 279 281 285 286 286 287 285 285 287 287 287 284 283 287 270 249 245 243 237 230 220 216 216 214 212 211 208 201 198 195 190 188 185 191 197 186 181 179 174 172 169 167 164 163 161 156 153 152 150 142 137 136 137 139 134 129 126 124 125 122 118 116 114 111 106 103 100
285 281 283 290 294 294 294 294 297 296 295 292 284 280 279 279 276 275 276 278 280 281 282 282 281 282 284 286 286 280 271 272 268 249 241 240 236 230 228 225 220 217 217 219 215 205 201 196 192 190 187 192 196 190 185 181 179 177 175 173 169 168 166 163 159 157 155 147 146 146 147 150 140 134 134 133 132 129 125 121 121 119 113 108 106
291 290 291 295 297 302 307 308 307 304 302 298 292 284 277 273 272 272 272 275 277 279 281 282 281 281 282 285 285 281 269 261 263 250 236 236 236 230 230 232 226 219 220 222 218 213 206 195 194 197 193 195 195 193 191 186 184 182 182 181 176 174 171 169 165 163 165 159 158 159 159 162 153 145 140 140 139 136 133 127 125 123 115 111 109
289 290 291 295 300 308 315 318 313 307 301 296 291 288 284 278 275 275 276 277 279 280 283 284 285 284 285 285 283 282 275 260 258 252 238 235 234 229 229 236 236 228 223 223 221 219 208 194 195 198 196 203 199 192 194 194 192 190 188 185 180 178 177 176 174 173 175 168 167 170 168 166 163 155 145 144 144 140 138 133 130 125 117 115 112
286 289 297 304 313 317 318 319 313 305 297 291 290 290 292 289 283 282 283 284 286 287 287 287 287 286 287 288 286 286 284 268 256 250 241 237 233 229 229 234 237 235 228 225 224 220 208 196 193 194 198 208 204 194 196 198 199 198 192 189 184 181 180 181 182 180 179 175 173 174 172 171 168 160 150 148 147 143 143 138 134 130 124 122 118
286 290 303 312 318 319 317 315 306 298 295 296 298 298 296 293 288 285 286 288 289 289 290 290 289 288 285 285 288 290 289 274 259 254 249 243 238 234 231 229 229 232 233 230 228 220 211 202 193 195 204 212 208 197 196 200 204 201 195 195 191 186 184 184 185 184 185 184 178 175 173 174 173 164 156 151 149 147 145 142 140 138 133 129 126
286 290 304 311 311 312 311 306 299 296 301 306 307 302 296 292 290 290 292 291 290 289 290 292 291 289 285 281 282 284 282 274 259 249 246 246 243 237 233 230 227 228 232 233 232 224 215 209 199 198 207 214 212 201 199 205 204 199 198 201 197 192 189 187 188 189 189 184 176 173 174 177 175 168 164 157 152 151 149 145 145 147 144 139 136
284 289 300 306 308 308 302 297 297 301 303 304 303 300 297 295 295 297 299 295 292 291 289 290 289 287 284 279 277 275 271 269 259 242 237 243 244 239 233 232 231 229 231 231 232 231 222 213 206 203 208 214 214 206 206 211 207 201 200 203 201 195 194 193 192 194 192 183 175 174 177 180 177 171 172 166 159 157 157 157 157 158 157 153 151
295 298 301 302 305 303 297 295 299 300 297 297 298 299 299 298 297 297 297 295 292 291 291 290 288 284 282 280 278 274 267 265 260 247 241 240 239 238 232 231 233 233 232 229 228 232 230 219 211 208 210 213 212 208 209 212 212 209 202 203 204 198 198 198 195 196 192 185 179 178 181 182 178 175 176 171 166 162 165 172 169 170 174 173 172
315 315 313 308 306 300 295 296 298 297 295 295 295 295 297 296 294 292 292 292 291 292 295 292 285 284 287 285 281 275 266 260 256 250 244 241 238 236 235 236 238 235 233 230 225 227 230 224 215 213 214 213 210 209 211 212 212 213 206 204 206 202 200 200 197 197 192 188 185 181 182 184 179 179 178 173 171 169 171 177 173 175 185 187 185
343 327 326 319 310 299 296 296 296 296 293 292 293 296 297 293 290 291 291 289 289 293 295 288 276 279 287 291 291 283 268 254 251 251 245 243 241 237 237 238 238 235 231 229 226 224 226 225 220 218 218 216 213 210 213 215 211 211 210 208 208 205 203 202 201 200 193 189 189 183 182 184 181 180 179 176 177 175 176 181 178 180 188 190 189
13 1 352 336 318 306 301 298 297 297 297 297 301 304 302 297 293 293 291 287 288 291 290 284 277 281 284 280 288 294 272 245 243 250 247 242 239 235 233 233 234 233 229 228 229 227 225 224 222 221 220 219 217 213 214 219 216 212 212 211 212 209 205 205 203 200 196 190 188 185 184 186 183 179 177 180 183 181 185 192 189 188 191 193 192
26 26 19 3 342 326 317 312 307 305 305 305 305 305 305 302 300 297 291 285 284 287 287 282 277 276 270 250 263 260 268 236 232 247 246 238 234 231 231 230 231 231 228 228 230 230 227 224 223 223 222 220 220 219 218 222 223 220 216 212 216 214 208 209 204 200 199 193 188 186 186 188 185 180 181 188 191 190 194 200 198 197 198 197 191
40 38 30 20 5 347 335 328 323 317 313 311 308 308 307 304 300 297 291 283 279 281 285 283 277 271 257 246 262 257 269 254 235 252 242 232 231 230 230 230 231 231 229 229 230 231 228 226 225 224 224 222 222 223 223 224 225 225 220 214 217 217 213 214 209 203 201 194 189 188 187 190 187 183 187 194 195 194 197 201 202 202 200 194 184
44 42 34 26 17 5 357 347 337 330 322 317 315 314 310 307 304 298 292 286 282 280 282 284 280 276 265 257 258 257 264 281 289 282 243 231 231 230 231 232 232 230 227 228 229 230 228 227 226 225 224 224 222 224 225 226 226 225 223 219 219 217 215 215 213 210 206 194 189 191 189 191 190 186 191 198 196 194 199 202 203 202 198 189 177
35 38 35 29 25 17 9 1 350 342 333 325 324 324 320 317 313 304 299 294 287 280 279 282 279 276 272 266 263 261 262 263 257 274 274 238 230 227 230 232 230 228 226 228 228 227 227 226 226 226 225 224 223 224 226 227 227 226 226 224 222 219 215 214 216 216 208 196 191 192 191 191 191 189 193 199 198 198 202 203 204 203 195 182 173
24 26 27 25 23 19 13 8 358 346 336 329 327 328 326 322 319 312 306 300 293 285 280 279 274 274 276 270 265 263 262 260 255 254 265 271 237 223 227 229 228 227 225 226 227 226 225 224 224 226 226 225 224 225 226 226 226 226 227 226 224 222 217 214 216 218 211 202 197 194 192 191 192 192 195 201 203 202 202 203 205 203 190 178 172
15 16 16 16 17 16 13 10 5 355 344 336 332 330 327 324 322 315 308 301 296 289 281 277 275 276 279 272 267 264 260 258 255 249 244 254 254 222 220 223 226 227 224 225 227 226 226 224 224 225 226 226 225 225 226 226 225 224 226 227 225 224 220 215 215 216 216 211 201 196 196 192 192 196 197 202 206 204 202 205 204 200 189 178 174
2 6 8 8 8 9 9 6 3 359 352 345 338 334 331 327 325 318 309 301 293 288 282 282 282 280 277 272 269 266 258 255 251 244 239 241 246 244 220 211 219 226 226 227 228 226 226 226 225 224 226 228 227 227 227 226 224 223 224 226 226 224 221 218 216 215 218 217 206 198 199 197 194 198 201 201 204 203 203 205 204 196 187 180 176
351 355 360 1 358 359 360 355 350 347 344 341 336 333 329 323 320 317 310 303 296 289 283 282 282 279 276 271 267 265 260 253 249 243 236 233 238 245 230 222 223 226 228 230 229 227 226 226 226 226 227 229 228 228 229 227 225 224 225 226 227 226 222 220 217 215 216 220 215 202 199 200 196 197 202 198 195 201 203 206 204 192 184 182 179
348 353 355 355 352 349 349 348 346 343 337 333 329 325 322 315 311 310 308 305 299 292 284 281 283 282 279 274 271 270 265 259 257 251 243 240 238 238 237 232 230 233 233 230 228 228 226 225 227 228 230 230 229 229 231 230 228 226 227 229 229 228 224 221 219 217 214 217 219 207 199 202 200 198 203 198 190 194 201 209 205 190 183 183 180
4 5 359 358 359 356 355 355 354 349 342 335 331 327 324 318 312 309 307 304 300 294 289 287 288 285 282 280 277 274 269 264 262 257 251 245 240 240 240 232 227 233 233 228 226 227 229 229 229 230 229 229 228 229 231 232 230 226 227 229 229 228 225 221 219 218 216 214 215 209 202 203 203 201 205 205 197 191 196 210 206 191 183 181 181
19 16 10 11 14 11 6 2 359 355 349 344 340 336 330 324 317 313 311 309 305 299 293 291 289 286 283 282 280 274 272 269 264 259 253 245 238 239 242 231 222 220 221 221 218 218 225 229 230 230 228 227 227 228 229 232 232 228 226 226 227 227 225 222 220 219 217 215 213 210 208 206 203 203 207 209 205 198 197 208 208 196 186 181 181
25 25 24 20 18 17 14 9 5 360 355 352 350 346 341 336 329 321 315 314 311 305 299 295 292 289 287 286 284 278 276 274 269 263 256 248 241 238 236 230 219 214 212 215 212 212 217 221 227 229 228 226 225 225 225 229 231 228 226 226 226 227 224 220 219 218 217 216 214 212 212 209 201 203 209 209 209 208 204 209 209 199 190 184 182
31 33 35 21 13 16 16 14 13 7 0 357 355 353 351 349 343 334 325 320 315 309 306 302 297 294 291 289 286 282 281 279 274 268 261 254 247 240 232 224 221 219 211 211 211 220 221 216 221 228 227 224 223 223 224 226 228 227 225 226 227 227 223 219 218 217 215 215 214 212 213 209 201 203 212 211 211 213 210 209 209 201 193 187 183
34 37 38 21 12 15 16 16 17 12 6 3 360 358 355 352 347 341 337 331 321 311 307 306 305 301 295 289 284 281 284 284 277 270 263 255 250 245 234 224 221 218 209 216 209 213 219 216 217 224 226 223 221 222 223 224 225 226 224 223 225 226 222 218 216 214 213 212 212 212 211 207 201 204 212 213 212 216 215 211 208 202 194 188 184
37 38 35 20 14 17 19 18 15 12 9 6 3 360 355 349 344 341 340 337 330 323 316 312 310 309 305 297 287 281 283 283 278 270 264 258 253 246 236 227 223 222 217 220 215 208 212 216 218 222 224 223 221 221 222 223 223 223 222 220 222 223 219 217 216 214 212 211 210 211 209 204 202 206 211 213 214 217 219 214 207 202 195 190 184
39 39 37 29 23 22 21 19 16 14 10 6 3 360 356 348 341 338 338 336 333 331 328 322 316 314 312 307 298 291 287 283 277 270 265 261 254 244 236 228 223 222 222 222 232 219 211 214 219 222 224 223 219 219 221 222 222 221 218 215 217 219 218 218 217 214 212 210 209 210 208 204 205 209 211 213 214 216 220 217 208 201 196 191 184
38 36 36 34 28 24 23 21 18 15 12 9 6 2 358 352 345 341 339 337 335 332 330 326 322 318 314 311 307 299 293 286 278 270 266 262 252 241 236 230 221 221 222 221 231 229 218 220 221 219 222 224 220 219 219 220 221 218 212 213 216 217 219 219 218 214 211 209 208 208 208 205 206 211 213 213 215 216 221 221 210 200 195 191 185
35 33 31 30 25 22 22 21 18 16 13 11 8 5 0 355 351 347 343 341 339 337 335 331 328 326 320 313 310 306 301 292 281 273 268 264 253 240 237 232 223 220 220 219 224 233 224 224 224 220 221 221 217 217 216 215 218 216 211 214 220 221 222 220 217 215 211 209 208 208 207 207 207 211 214 213 215 218 221 220 210 200 195 191 187
34 35 33 30 25 21 21 20 18 17 14 11 8 5 3 358 353 350 348 346 343 341 340 338 335 334 329 319 312 311 308 298 286 277 272 269 259 244 237 233 228 223 220 218 220 226 226 224 223 220 219 217 214 214 213 213 216 215 213 215 221 223 224 221 217 215 212 209 209 208 208 208 208 211 213 212 214 217 220 220 210 200 196 193 190
35 37 37 34 28 23 21 20 19 18 15 12 9 6 4 1 355 352 350 349 347 344 342 340 339 337 333 326 319 316 310 300 293 287 278 271 265 253 241 233 227 224 222 221 220 219 222 227 225 220 216 213 213 215 215 216 217 214 212 214 218 219 220 219 217 215 212 209 209 209 209 209 209 211 212 213 215 217 220 220 212 201 196 195 192
38 39 39 35 30 24 22 21 19 18 16 13 9 7 6 4 359 355 353 350 349 347 343 342 342 339 334 328 324 324 316 302 294 291 283 273 268 264 258 245 232 226 224 224 224 220 217 225 228 224 218 213 215 218 216 215 215 214 213 212 213 214 215 216 216 214 212 210 209 210 210 210 210 211 212 212 215 218 220 219 213 203 198 198 196
40 40 39 35 30 26 23 21 19 18 16 13 10 8 8 7 4 0 357 355 352 350 347 347 347 344 340 337 333 333 327 312 297 289 283 276 271 267 264 260 251 241 232 227 227 222 215 220 228 229 224 218 218 219 215 210 209 212 214 211 210 211 210 210 212 213 212 209 208 210 211 211 212 212 212 213 215 218 220 219 215 206 200 200 199
41 41 40 36 31 27 24 22 20 18 17 15 12 10 8 8 8 6 4 360 356 352 348 348 349 346 346 348 347 346 343 334 320 306 292 281 274 267 261 258 254 248 240 236 234 225 216 220 227 229 225 218 215 214 213 209 203 203 208 208 208 207 202 202 206 211 211 208 207 209 211 211 212 211 211 213 215 218 220 220 216 209 203 203 202
42 40 38 36 32 28 25 23 21 19 18 16 14 13 11 8 8 8 7 4 359 355 352 349 350 351 351 352 354 355 354 350 344 337 327 310 288 274 265 258 251 244 239 236 233 225 219 220 223 226 225 219 212 211 213 209 201 199 201 196 195 199 198 198 200 204 207 207 206 208 211 212 212 211 212 213 215 218 220 221 218 212 206 205 204
40 37 35 33 30 27 25 23 21 19 19 17 14 13 11 10 9 8 8 6 1 357 356 354 354 353 352 352 353 355 355 353 348 345 346 343 326 300 279 264 252 243 238 232 226 222 224 225 222 223 224 219 213 212 209 199 192 197 201 195 190 193 196 197 198 201 204 205 204 207 209 211 211 211 211 213 215 217 220 222 221 215 209 206 205
38 35 34 31 28 26 24 23 20 18 18 17 15 14 12 11 10 8 8 7 3 358 356 356 357 355 352 351 351 352 354 352 347 343 340 342 342 329 307 285 264 249 241 235 226 220 222 224 222 220 220 218 213 203 192 191 195 198 198 197 197 195 193 194 197 201 204 203 202 204 207 209 209 209 210 212 214 216 219 223 223 217 211 208 206
34 31 30 29 27 25 23 21 20 18 17 15 15 16 15 13 12 9 8 7 6 4 360 355 356 356 353 353 352 353 355 352 347 344 339 335 336 333 321 305 286 264 248 239 230 223 221 219 220 217 213 217 212 199 191 198 203 197 190 194 198 189 183 186 192 202 207 203 200 202 207 209 208 207 210 212 213 215 218 221 220 215 211 210 208
30 27 26 26 25 23 22 21 19 17 15 13 13 16 17 16 14 11 8 5 5 6 3 359 358 356 353 353 352 354 357 355 349 344 340 335 332 329 320 307 294 278 258 243 232 226 222 220 222 217 211 217 215 204 199 200 198 193 191 195 191 172 172 183 189 201 209 205 199 200 205 209 208 208 210 212 214 216 217 218 217 214 212 210 209
32 29 27 25 24 22 22 21 19 17 15 12 11 14 15 17 16 14 9 5 2 3 3 2 1 358 355 352 350 352 355 355 352 347 342 337 332 329 325 311 296 285 271 253 241 231 223 220 223 219 215 222 220 207 201 197 194 193 193 193 189 180 182 190 191 194 203 204 201 201 204 208 209 209 212 214 215 217 218 217 215 215 213 211 211
36 33 30 27 25 24 23 22 20 18 15 13 11 12 13 15 17 16 12 7 3 0 360 360 359 358 356 352 348 349 352 355 355 352 346 340 334 330 327 319 305 293 283 268 253 242 233 227 225 223 220 223 223 214 207 202 195 190 187 189 192 190 190 195 197 196 197 198 197 197 201 208 208 209 213 217 217 218 218 218 217 216 215 213 213
35 32 29 26 25 25 24 24 22 20 17 14 12 11 12 13 16 16 14 11 8 3 360 358 356 355 356 353 348 346 349 352 354 352 347 343 338 334 330 326 317 304 293 283 268 252 241 233 229 230 229 227 226 225 219 209 200 194 191 192 194 195 197 201 201 195 191 195 197 193 199 210 208 207 214 218 219 220 220 219 219 218 216 215 214
34 31 28 25 24 25 25 24 23 22 20 17 14 12 11 12 15 16 13 11 11 7 3 360 356 354 354 351 348 345 346 348 351 351 348 343 340 337 334 329 324 315 302 292 285 271 251 237 232 235 238 236 234 233 228 217 210 208 205 202 199 196 197 197 192 187 190 198 200 195 199 211 207 206 213 218 219 221 221 221 221 220 219 219 218
34 32 29 27 25 25 25 24 23 22 22 20 17 14 11 11 14 15 12 10 10 7 4 0 356 355 354 350 347 346 346 348 349 351 351 345 340 339 336 330 326 320 310 300 295 289 271 251 241 240 243 243 241 239 234 225 219 215 209 202 193 186 181 175 174 183 193 198 200 198 199 207 206 205 209 214 217 220 221 221 222 221 220 220 221
35 32 30 29 28 26 26 25 22 21 22 21 19 16 13 12 14 14 12 9 7 4 2 360 356 355 354 351 348 347 348 349 350 352 353 349 344 342 337 331 328 323 318 315 306 293 283 267 252 244 242 243 242 239 234 230 224 216 204 188 182 179 175 172 177 187 192 195 197 199 200 201 201 200 200 204 212 217 219 221 221 221 221 221 221
37 35 33 32 31 29 27 26 22 21 21 21 20 18 15 14 15 15 12 8 5 1 359 357 356 356 355 353 353 351 349 350 352 354 356 354 350 346 339 332 328 322 319 321 316 298 283 272 260 250 243 240 239 237 233 231 227 218 206 197 192 184 178 182 188 184 186 194 198 199 198 194 193 190 183 179 193 207 213 217 219 218 218 218 219
39 37 36 35 33 30 28 26 24 22 21 21 21 19 17 16 17 16 13 8 4 1 358 354 353 355 356 355 356 356 352 352 356 358 359 359 356 350 343 335 326 319 317 318 313 297 281 270 262 255 248 244 243 241 237 233 228 221 214 209 200 189 184 190 188 171 169 202 203 198 194 187 184 181 175 162 158 198 206 208 211 211 210 208 207